TimeMST,TemperatureF,Dew PointF,Humidity,Sea Level PressureIn,VisibilityMPH,Wind Direction,Wind SpeedMPH,Gust SpeedMPH,PrecipitationIn,Events,Conditions,WindDirDegrees,DateUTC
12:05 AM,32.0,28.4,87,30.22,10.0,North,4.6,-,N/A,,Overcast,10,2012-11-15 07:05:00
12:20 AM,30.2,30.2,100,30.22,10.0,North,8.1,-,N/A,,Overcast,350,2012-11-15 07:20:00
12:44 AM,30.2,30.2,100,30.22,2.0,NNW,11.5,-,0.00,Snow,Light Snow,340,2012-11-15 07:44:00
12:53 AM,30.9,30.0,96,30.13,2.5,NNW,10.4,-,0.00,Snow,Light Snow,340,2012-11-15 07:53:00
1:02 AM,30.2,30.2,100,30.23,3.0,NNW,12.7,-,0.00,Snow,Light Snow,340,2012-11-15 08:02:00
1:04 AM,30.2,30.2,100,30.23,3.0,NNW,11.5,-,0.00,Snow,Light Snow,340,2012-11-15 08:04:00
1:11 AM,30.2,30.2,100,30.23,1.8,NNW,10.4,-,0.00,Snow,Light Snow,340,2012-11-15 08:11:00
1:36 AM,30.2,30.2,100,30.24,2.0,North,10.4,-,0.00,Snow,Light Snow,350,2012-11-15 08:36:00
1:53 AM,30.9,30.0,96,30.17,3.0,NNW,6.9,-,0.00,Snow,Light Snow,340,2012-11-15 08:53:00
2:11 AM,30.2,30.2,100,30.25,4.0,North,8.1,-,0.00,Snow,Light Snow,350,2012-11-15 09:11:00
2:32 AM,30.2,30.2,100,30.26,4.0,North,8.1,-,0.00,Snow,Light Snow,350,2012-11-15 09:32:00
2:50 AM,30.2,28.4,93,30.26,9.0,North,6.9,-,0.00,,Overcast,350,2012-11-15 09:50:00
2:53 AM,30.0,28.9,96,30.21,9.0,North,8.1,-,0.00,,Overcast,360,2012-11-15 09:53:00
3:01 AM,30.2,28.4,93,30.26,10.0,North,6.9,-,N/A,,Overcast,360,2012-11-15 10:01:00
3:53 AM,28.0,27.0,96,30.23,9.0,NE,8.1,-,0.00,Snow,Light Snow,50,2012-11-15 10:53:00
5:24 AM,26.6,24.8,93,30.29,10.0,ESE,4.6,-,N/A,,Overcast,110,2012-11-15 12:24:00
5:53 AM,27.0,25.0,92,30.30,10.0,ESE,4.6,-,N/A,,Overcast,120,2012-11-15 12:53:00
6:53 AM,27.0,23.0,85,30.32,10.0,ESE,5.8,-,N/A,,Overcast,120,2012-11-15 13:53:00
7:53 AM,26.1,24.1,92,30.35,10.0,SSE,4.6,-,N/A,,Mostly Cloudy,160,2012-11-15 14:53:00
8:08 AM,26.6,24.8,93,30.33,10.0,SSE,5.8,-,N/A,,Scattered Clouds,160,2012-11-15 15:08:00
8:36 AM,26.6,24.8,93,30.34,10.0,South,5.8,-,N/A,,Mostly Cloudy,190,2012-11-15 15:36:00
8:53 AM,28.0,25.0,88,30.36,10.0,South,6.9,-,N/A,,Overcast,180,2012-11-15 15:53:00
9:53 AM,30.9,26.1,82,30.33,10.0,SSE,11.5,-,N/A,,Overcast,150,2012-11-15 16:53:00
10:51 AM,33.8,26.6,75,30.34,10.0,SSE,13.8,-,N/A,,Mostly Cloudy,150,2012-11-15 17:51:00
10:53 AM,34.0,27.0,75,30.34,10.0,SSE,15.0,-,N/A,,Scattered Clouds,150,2012-11-15 17:53:00
11:53 AM,36.0,26.1,67,30.30,10.0,SE,9.2,-,N/A,,Clear,140,2012-11-15 18:53:00
12:53 PM,39.0,26.1,60,30.25,10.0,SE,8.1,16.1,N/A,,Clear,140,2012-11-15 19:53:00
1:53 PM,41.0,25.0,53,30.22,10.0,South,8.1,-,N/A,,Partly Cloudy,190,2012-11-15 20:53:00
2:53 PM,41.0,26.1,55,30.22,10.0,SSW,9.2,18.4,N/A,,Scattered Clouds,200,2012-11-15 21:53:00
3:53 PM,41.0,19.0,41,30.24,10.0,SSW,10.4,19.6,N/A,,Clear,200,2012-11-15 22:53:00
4:53 PM,30.9,25.0,79,30.32,10.0,SSE,10.4,-,N/A,,Clear,150,2012-11-15 23:53:00
5:53 PM,28.0,24.1,85,30.34,10.0,SSE,10.4,-,N/A,,Clear,160,2012-11-16 00:53:00
6:53 PM,27.0,24.1,89,30.35,10.0,SSE,11.5,-,N/A,,Clear,160,2012-11-16 01:53:00
7:53 PM,26.1,21.9,84,30.35,10.0,South,11.5,-,N/A,,Clear,180,2012-11-16 02:53:00
8:53 PM,24.1,21.0,88,30.36,10.0,South,10.4,-,N/A,,Clear,180,2012-11-16 03:53:00
9:53 PM,23.0,19.9,88,30.34,10.0,South,6.9,-,N/A,,Clear,180,2012-11-16 04:53:00
10:53 PM,25.0,21.9,88,30.30,10.0,South,4.6,-,N/A,,Clear,190,2012-11-16 05:53:00
11:53 PM,21.9,19.9,92,30.28,10.0,South,8.1,-,N/A,,Clear,170,2012-11-16 06:53:00